| time (UTC) | temp C | wind direction | speed KPH | gust KPH | rain 1hr cm | rain 24hr cm | rain mn cm | humidity % | barometer mb |
| 20260507153003 | 16 | 145 | 0.0 | 3.2 | 0.00 | 0.00 | 0.00 | 57 | 1014.6 |
| 20260507152003 | 15 | 125 | 0.0 | 3.2 | 0.00 | 0.00 | 0.00 | 57 | 1014.6 |
| 20260507151002 | 15 | 121 | 0.0 | 3.2 | 0.00 | 0.00 | 0.00 | 59 | 1014.4 |
| 20260507150024 | 16 | 139 | 0.0 | 3.2 | 0.00 | 0.00 | 0.00 | 57 | 1014.7 |
| 20260507145003 | 15 | 133 | 0.0 | 4.8 | 0.00 | 0.00 | 0.00 | 59 | 1014.7 |
| 20260507144003 | 15 | 117 | 0.0 | 4.8 | 0.00 | 0.00 | 0.00 | 62 | 1014.9 |
| 20260507143003 | 14 | 95 | 1.6 | 4.8 | 0.00 | 0.00 | 0.00 | 65 | 1015.0 |
| 20260507142003 | 14 | 110 | 1.6 | 4.8 | 0.00 | 0.00 | 0.00 | 64 | 1015.0 |
| 20260507141024 | 15 | 104 | 1.6 | 6.4 | 0.00 | 0.00 | 0.00 | 63 | 1015.1 |
| 20260507140024 | 15 | 111 | 1.6 | 6.4 | 0.00 | 0.00 | 0.00 | 63 | 1015.1 |
| 20260507135024 | 15 | 136 | 1.6 | 4.8 | 0.00 | 0.00 | 0.00 | 62 | 1015.0 |
| 20260507134003 | 15 | 237 | 0.0 | 4.8 | 0.00 | 0.00 | 0.00 | 61 | 1015.0 |
| 20260507133003 | 13 | 295 | 0.0 | 1.6 | 0.00 | 0.00 | 0.00 | 71 | 1015.0 |
| 20260507132003 | 14 | 0 | 0.0 | 0.0 | 0.00 | 0.00 | 0.00 | 72 | 1014.9 |
| 20260507131003 | 13 | 0 | 0.0 | 0.0 | 0.00 | 0.00 | 0.00 | 75 | 1015.1 |
| 20260507130003 | 13 | 60 | 0.0 | 1.6 | 0.00 | 0.00 | 0.00 | 77 | 1015.2 |
| 20260507125003 | 13 | 0 | 0.0 | 1.6 | 0.00 | 0.00 | 0.00 | 79 | 1015.4 |
| 20260507124003 | 13 | 105 | 0.0 | 3.2 | 0.00 | 0.00 | 0.00 | 80 | 1015.5 |
| 20260507123003 | 13 | 117 | 0.0 | 4.8 | 0.00 | 0.00 | 0.00 | 77 | 1015.2 |
| 20260507122003 | 14 | 124 | 0.0 | 6.4 | 0.00 | 0.00 | 0.00 | 70 | 1015.5 |
| 20260507121024 | 14 | 114 | 0.0 | 1.6 | 0.00 | 0.00 | 0.00 | 66 | 1015.2 |
| 20260507120024 | 14 | 125 | 0.0 | 3.2 | 0.00 | 0.00 | 0.00 | 64 | 1015.3 |
| 20260507115003 | 14 | 110 | 0.0 | 3.2 | 0.00 | 0.00 | 0.00 | 66 | 1015.3 |
| 20260507114003 | 14 | 134 | 0.0 | 6.4 | 0.00 | 0.00 | 0.00 | 66 | 1015.2 |
| 20260507113003 | 14 | 113 | 1.6 | 6.4 | 0.00 | 0.00 | 0.00 | 65 | 1015.4 |
| 20260507112003 | 14 | 129 | 1.6 | 9.7 | 0.00 | 0.00 | 0.00 | 65 | 1015.4 |
| 20260507111003 | 14 | 75 | 0.0 | 4.8 | 0.00 | 0.00 | 0.00 | 65 | 1015.3 |
| 20260507110024 | 14 | 127 | 1.6 | 4.8 | 0.00 | 0.00 | 0.00 | 64 | 1015.3 |
| 20260507105003 | 14 | 123 | 1.6 | 4.8 | 0.00 | 0.00 | 0.00 | 67 | 1015.5 |
| 20260507104003 | 14 | 105 | 0.0 | 3.2 | 0.00 | 0.00 | 0.00 | 65 | 1015.5 |
| 20260507103003 | 14 | 191 | 0.0 | 3.2 | 0.00 | 0.00 | 0.00 | 67 | 1015.3 |
| 20260507102003 | 15 | 161 | 0.0 | 4.8 | 0.00 | 0.00 | 0.00 | 66 | 1015.7 |
| 20260507101024 | 14 | 177 | 1.6 | 4.8 | 0.00 | 0.00 | 0.00 | 67 | 1015.6 |
| 20260507100003 | 14 | 153 | 0.0 | 3.2 | 0.00 | 0.00 | 0.00 | 68 | 1015.6 |
| 20260507095003 | 13 | 174 | 0.0 | 3.2 | 0.00 | 0.00 | 0.00 | 70 | 1015.6 |
| 20260507094003 | 13 | 244 | 1.6 | 3.2 | 0.00 | 0.00 | 0.00 | 73 | 1015.4 |
| 20260507093003 | 13 | 250 | 0.0 | 4.8 | 0.00 | 0.00 | 0.00 | 75 | 1015.5 |
| 20260507092024 | 13 | 131 | 0.0 | 4.8 | 0.00 | 0.00 | 0.00 | 76 | 1015.7 |
| 20260507091003 | 13 | 130 | 0.0 | 4.8 | 0.00 | 0.00 | 0.00 | 75 | 1015.6 |
| 20260507090003 | 13 | 212 | 0.0 | 3.2 | 0.00 | 0.00 | 0.00 | 74 | 1015.5 |
| 20260507085024 | 12 | 212 | 0.0 | 3.2 | 0.00 | 0.00 | 0.00 | 77 | 1015.9 |
| 20260507084003 | 12 | 212 | 0.0 | 4.8 | 0.00 | 0.00 | 0.00 | 78 | 1015.8 |
| 20260507083024 | 11 | 212 | 0.0 | 3.2 | 0.00 | 0.00 | 0.00 | 79 | 1016.0 |
| 20260507082003 | 11 | 212 | 0.0 | 3.2 | 0.00 | 0.00 | 0.00 | 79 | 1016.0 |
| 20260507081003 | 11 | 212 | 0.0 | 3.2 | 0.00 | 0.00 | 0.00 | 80 | 1015.9 |
| 20260507080003 | 10 | 215 | 0.0 | 4.8 | 0.00 | 0.00 | 0.00 | 81 | 1015.7 |
| 20260507075003 | 10 | 255 | 0.0 | 3.2 | 0.00 | 0.00 | 0.00 | 81 | 1016.0 |
| 20260507074003 | 10 | 241 | 0.0 | 1.6 | 0.00 | 0.00 | 0.00 | 81 | 1015.6 |
| 20260507073024 | 10 | 238 | 0.0 | 1.6 | 0.00 | 0.00 | 0.00 | 81 | 1015.7 |
| 20260507072003 | 10 | 226 | 0.0 | 3.2 | 0.00 | 0.00 | 0.00 | 82 | 1015.7 |
| 20260507071003 | 10 | 225 | 0.0 | 3.2 | 0.00 | 0.00 | 0.00 | 83 | 1015.6 |
| 20260507070005 | 10 | 244 | 0.0 | 4.8 | 0.00 | 0.00 | 0.00 | 83 | 1015.7 |
| 20260507065003 | 9 | 235 | 0.0 | 3.2 | 0.00 | 0.00 | 0.00 | 83 | 1015.7 |
| 20260507063003 | 9 | 232 | 0.0 | 3.2 | 0.00 | 0.00 | 0.00 | 84 | 1015.6 |
| 20260507062003 | 8 | 233 | 0.0 | 3.2 | 0.00 | 0.00 | 0.00 | 84 | 1015.6 |
| 20260507061003 | 8 | 215 | 0.0 | 1.6 | 0.00 | 0.00 | 0.00 | 85 | 1015.7 |
| 20260507060024 | 8 | 215 | 0.0 | 1.6 | 0.00 | 0.00 | 0.00 | 85 | 1015.7 |
| 20260507055024 | 8 | 215 | 0.0 | 1.6 | 0.00 | 0.00 | 0.00 | 85 | 1015.4 |
| 20260507054024 | 8 | 0 | 0.0 | 1.6 | 0.00 | 0.00 | 0.00 | 85 | 1015.2 |
| 20260507053003 | 8 | 215 | 0.0 | 1.6 | 0.00 | 0.00 | 0.00 | 85 | 1015.4 |
| 20260507052003 | 8 | 0 | 0.0 | 0.0 | 0.00 | 0.00 | 0.00 | 86 | 1015.3 |
| 20260507051003 | 8 | 0 | 0.0 | 0.0 | 0.00 | 0.00 | 0.00 | 86 | 1015.5 |
| 20260507050003 | 8 | 0 | 0.0 | 0.0 | 0.00 | 0.00 | 0.00 | 86 | 1015.2 |
| 20260507045003 | 8 | 216 | 0.0 | 1.6 | 0.00 | 0.00 | 0.00 | 85 | 1015.3 |
| 20260507044003 | 8 | 215 | 0.0 | 1.6 | 0.00 | 0.00 | 0.00 | 85 | 1015.2 |
| 20260507043003 | 8 | 0 | 0.0 | 0.0 | 0.00 | 0.00 | 0.00 | 84 | 1015.1 |
| 20260507042003 | 8 | 0 | 0.0 | 1.6 | 0.00 | 0.00 | 0.00 | 84 | 1015.1 |
| 20260507041003 | 8 | 0 | 0.0 | 0.0 | 0.00 | 0.00 | 0.00 | 85 | 1015.1 |
| 20260507040003 | 8 | 0 | 0.0 | 1.6 | 0.00 | 0.00 | 0.00 | 85 | 1015.2 |
| 20260507035003 | 8 | 0 | 0.0 | 0.0 | 0.00 | 0.00 | 0.00 | 84 | 1015.1 |
| 20260507034003 | 8 | 0 | 0.0 | 1.6 | 0.00 | 0.00 | 0.00 | 84 | 1015.1 |
| 20260507033003 | 8 | 214 | 0.0 | 1.6 | 0.00 | 0.00 | 0.00 | 83 | 1015.0 |
| 20260507032024 | 8 | 0 | 0.0 | 0.0 | 0.00 | 0.00 | 0.00 | 83 | 1014.9 |
| 20260507031024 | 8 | 0 | 0.0 | 0.0 | 0.00 | 0.00 | 0.00 | 81 | 1014.9 |
| 20260507030024 | 8 | 0 | 0.0 | 0.0 | 0.00 | 0.00 | 0.00 | 81 | 1015.1 |
| 20260507025003 | 8 | 0 | 0.0 | 1.6 | 0.00 | 0.00 | 0.00 | 80 | 1015.1 |
| 20260507024003 | 8 | 0 | 0.0 | 0.0 | 0.00 | 0.00 | 0.00 | 80 | 1015.0 |
| 20260507023003 | 8 | 0 | 0.0 | 1.6 | 0.00 | 0.00 | 0.00 | 80 | 1015.0 |
| 20260507022003 | 8 | 0 | 0.0 | 0.0 | 0.00 | 0.00 | 0.00 | 79 | 1015.0 |
| 20260507021003 | 8 | 0 | 0.0 | 0.0 | 0.00 | 0.00 | 0.00 | 79 | 1014.9 |
| 20260507020003 | 8 | 214 | 0.0 | 1.6 | 0.00 | 0.00 | 0.00 | 79 | 1015.0 |
| 20260507015004 | 8 | 0 | 0.0 | 1.6 | 0.00 | 0.00 | 0.00 | 79 | 1015.0 |
| 20260507014003 | 8 | 214 | 0.0 | 1.6 | 0.00 | 0.00 | 0.00 | 78 | 1015.1 |
| 20260507013003 | 8 | 214 | 0.0 | 1.6 | 0.00 | 0.00 | 0.00 | 78 | 1014.9 |
| 20260507012003 | 8 | 0 | 0.0 | 0.0 | 0.00 | 0.00 | 0.00 | 78 | 1014.9 |
| 20260507011003 | 8 | 214 | 0.0 | 1.6 | 0.00 | 0.00 | 0.00 | 77 | 1015.0 |
| 20260507010004 | 8 | 0 | 0.0 | 1.6 | 0.00 | 0.00 | 0.00 | 77 | 1014.9 |
| 20260507005003 | 9 | 289 | 0.0 | 1.6 | 0.00 | 0.00 | 0.00 | 77 | 1014.9 |
| 20260507004003 | 9 | 256 | 0.0 | 1.6 | 0.00 | 0.00 | 0.00 | 77 | 1014.9 |
| 20260507003004 | 9 | 258 | 0.0 | 3.2 | 0.00 | 0.00 | 0.00 | 77 | 1015.0 |
| 20260507002006 | 9 | 259 | 0.0 | 1.6 | 0.00 | 0.00 | 0.00 | 77 | 1015.0 |
| 20260506235003 | 9 | 0 | 0.0 | 0.0 | 0.00 | 0.00 | 0.00 | 75 | 1015.2 |
| 20260506234003 | 9 | 0 | 0.0 | 1.6 | 0.00 | 0.00 | 0.00 | 74 | 1014.8 |
| 20260506233003 | 9 | 0 | 0.0 | 0.0 | 0.00 | 0.00 | 0.00 | 74 | 1015.0 |
| 20260506232003 | 9 | 0 | 0.0 | 0.0 | 0.00 | 0.00 | 0.00 | 74 | 1015.1 |
| 20260506231005 | 9 | 0 | 0.0 | 0.0 | 0.00 | 0.00 | 0.00 | 73 | 1015.0 |
| 20260506230004 | 10 | 0 | 0.0 | 0.0 | 0.00 | 0.00 | 0.00 | 73 | 1014.8 |
| 20260506225003 | 10 | 0 | 0.0 | 1.6 | 0.00 | 0.00 | 0.00 | 74 | 1014.8 |
| 20260506224003 | 10 | 263 | 0.0 | 1.6 | 0.00 | 0.00 | 0.00 | 74 | 1015.0 |
| 20260506223004 | 10 | 263 | 0.0 | 1.6 | 0.00 | 0.00 | 0.00 | 74 | 1014.8 |
| 20260506222003 | 10 | 0 | 0.0 | 1.6 | 0.00 | 0.00 | 0.00 | 74 | 1014.8 |
| 20260506221024 | 10 | 270 | 0.0 | 1.6 | 0.00 | 0.00 | 0.00 | 74 | 1014.6 |
| 20260506220006 | 10 | 270 | 0.0 | 1.6 | 0.00 | 0.00 | 0.00 | 73 | 1014.6 |
| 20260506215004 | 10 | 270 | 0.0 | 1.6 | 0.00 | 0.00 | 0.00 | 72 | 1014.7 |
| 20260506214003 | 10 | 0 | 0.0 | 0.0 | 0.00 | 0.00 | 0.00 | 73 | 1014.6 |
| 20260506213024 | 10 | 0 | 0.0 | 0.0 | 0.00 | 0.00 | 0.00 | 73 | 1014.7 |
| 20260506212003 | 11 | 0 | 0.0 | 0.0 | 0.00 | 0.00 | 0.00 | 72 | 1014.6 |
| 20260506211003 | 11 | 0 | 0.0 | 0.0 | 0.00 | 0.00 | 0.00 | 71 | 1014.5 |
| 20260506210004 | 11 | 0 | 0.0 | 0.0 | 0.00 | 0.00 | 0.00 | 70 | 1014.5 |
| 20260506205025 | 11 | 0 | 0.0 | 0.0 | 0.00 | 0.00 | 0.00 | 68 | 1014.3 |
| 20260506204024 | 12 | 0 | 0.0 | 1.6 | 0.00 | 0.00 | 0.00 | 67 | 1014.3 |
| 20260506203003 | 12 | 270 | 0.0 | 1.6 | 0.00 | 0.00 | 0.00 | 65 | 1014.4 |
| 20260506202004 | 12 | 0 | 0.0 | 0.0 | 0.00 | 0.00 | 0.00 | 66 | 1014.3 |
| 20260506201003 | 12 | 0 | 0.0 | 1.6 | 0.00 | 0.00 | 0.00 | 66 | 1014.1 |
| 20260506200004 | 12 | 0 | 0.0 | 1.6 | 0.00 | 0.00 | 0.00 | 66 | 1014.3 |
| 20260506195003 | 12 | 0 | 0.0 | 0.0 | 0.00 | 0.00 | 0.00 | 64 | 1013.9 |
| 20260506194003 | 12 | 0 | 0.0 | 0.0 | 0.00 | 0.00 | 0.00 | 60 | 1013.8 |
| 20260506193004 | 13 | 0 | 0.0 | 0.0 | 0.00 | 0.00 | 0.00 | 59 | 1013.8 |
| 20260506192004 | 13 | 0 | 0.0 | 0.0 | 0.00 | 0.00 | 0.00 | 57 | 1013.9 |
| 20260506191003 | 13 | 0 | 0.0 | 0.0 | 0.00 | 0.00 | 0.00 | 57 | 1013.7 |
| 20260506190004 | 13 | 0 | 0.0 | 0.0 | 0.00 | 0.00 | 0.00 | 56 | 1013.8 |
| 20260506185004 | 13 | 0 | 0.0 | 0.0 | 0.00 | 0.00 | 0.00 | 56 | 1013.8 |
| 20260506184003 | 13 | 270 | 0.0 | 1.6 | 0.00 | 0.00 | 0.00 | 55 | 1013.7 |
| 20260506183004 | 14 | 270 | 0.0 | 1.6 | 0.00 | 0.00 | 0.00 | 54 | 1013.6 |
| 20260506182004 | 14 | 273 | 0.0 | 1.6 | 0.00 | 0.00 | 0.00 | 57 | 1013.7 |
| 20260506180003 | 14 | 259 | 0.0 | 1.6 | 0.00 | 0.00 | 0.00 | 56 | 1013.4 |
| 20260506175003 | 14 | 267 | 0.0 | 4.8 | 0.00 | 0.00 | 0.00 | 55 | 1013.4 |
| 20260506174003 | 14 | 260 | 0.0 | 3.2 | 0.00 | 0.00 | 0.00 | 52 | 1013.3 |
| 20260506173003 | 15 | 274 | 0.0 | 4.8 | 0.00 | 0.00 | 0.00 | 52 | 1013.4 |
| 20260506172003 | 15 | 283 | 0.0 | 3.2 | 0.00 | 0.00 | 0.00 | 50 | 1013.3 |
| 20260506171003 | 15 | 228 | 0.0 | 3.2 | 0.00 | 0.00 | 0.00 | 50 | 1013.3 |
| 20260506170003 | 14 | 222 | 0.0 | 3.2 | 0.00 | 0.00 | 0.00 | 50 | 1013.2 |
| 20260506165003 | 14 | 254 | 0.0 | 3.2 | 0.00 | 0.00 | 0.00 | 51 | 1013.1 |
| 20260506164003 | 15 | 258 | 0.0 | 4.8 | 0.00 | 0.00 | 0.00 | 50 | 1013.4 |
| 20260506163003 | 15 | 295 | 0.0 | 6.4 | 0.00 | 0.00 | 0.00 | 49 | 1013.4 |
| 20260506161003 | 15 | 298 | 0.0 | 3.2 | 0.00 | 0.00 | 0.00 | 51 | 1013.3 |
| 20260506160003 | 15 | 298 | 0.0 | 3.2 | 0.00 | 0.00 | 0.00 | 49 | 1013.4 |
| 20260506155010 | 15 | 298 | 0.0 | 3.2 | 0.00 | 0.00 | 0.00 | 49 | 1013.5 |
| 20260506154003 | 16 | 301 | 0.0 | 3.2 | 0.00 | 0.00 | 0.00 | 46 | 1013.5 |